Tracking 27107 objects as of 22-Mar-2023
HD Live streaming from Space Station
objects crossing your sky now

STARLINK-4256

Track STARLINK-4256 now!
10-day predictions
STARLINK-4256 is classified as:


NORAD ID: 52994
Int'l Code: 2022-076J
Perigee: 546.1 km
Apogee: 547.7 km
Inclination: 53.2 °
Period: 95.4 minutes
Semi major axis: 6917 km
RCS: Unknown
Launch date: July 7, 2022
Source: United States (US)
Launch site: AIR FORCE EASTERN TEST RANGE (AFETR)
Your satellite tracking list
Your tracking list is empty




NASA's NSSDC Master Catalog

Two Line Element Set (TLE):
1 52994U 22076J   23080.81413380  .00003886  00000-0  26208-3 0  9993
2 52994  53.2138 279.8284 0001176  97.4942 262.6183 15.08842306 39213
Source of the keplerian elements: AFSPC